This is the latest recevied weather packets stored in our database for station/object AJ5AG. If no packets are shown the sender has not sent any weather packets the latest 10 day(s).
| Time | Temp. | Humidity | Pressure | Rain* | Wind** | Luminosity | Snow |
|---|---|---|---|---|---|---|---|
| 1777326556 | 30.56° C | 68% | 1012.2 hPa | 0 mm | - | 125 W/m² | - |
| 1777326254 | 31.11° C | 67% | 1012.4 hPa | 0 mm | - | 99 W/m² | - |
| 1777325951 | 31.11° C | 67% | 1012.3 hPa | 0 mm | - | 138 W/m² | - |
| 1777325649 | 31.67° C | 67% | 1012.5 hPa | 0 mm | - | 102 W/m² | - |
| 1777325347 | 31.67° C | 67% | 1012.4 hPa | 0 mm | - | 130 W/m² | - |
| 1777325045 | 31.67° C | 70% | 1012.6 hPa | 0 mm | - | 168 W/m² | - |
| 1777324740 | 31.11° C | 71% | 1012.4 hPa | 0 mm | - | 252 W/m² | - |
| 1777324438 | 30.56° C | 70% | 1012.5 hPa | 0 mm | - | 193 W/m² | - |
| 1777324136 | 30.56° C | 71% | 1012.5 hPa | 0 mm | - | 212 W/m² | - |
| 1777323834 | 30.56° C | 73% | 1012.6 hPa | 0 mm | - | 222 W/m² | - |
| 1777323530 | 30.56° C | 72% | 1012.4 hPa | 0 mm | - | 209 W/m² | - |
| 1777323227 | 30.56° C | 72% | 1012.7 hPa | 0 mm | - | 215 W/m² | - |
| 1777322924 | 30° C | 71% | 1012.9 hPa | 0 mm | - | 218 W/m² | - |
| 1777322623 | 30° C | 71% | 1012.8 hPa | 0 mm | - | 162 W/m² | - |
| 1777322320 | 30° C | 72% | 1012.9 hPa | 0 mm | - | 156 W/m² | - |
| 1777322017 | 30° C | 71% | 1013 hPa | 0 mm | - | 136 W/m² | - |
| 1777321713 | 30.56° C | 72% | 1013 hPa | 0 mm | - | 118 W/m² | - |
| 1777321410 | 30.56° C | 71% | 1012.8 hPa | 0 mm | - | 129 W/m² | - |
| 1777321108 | 30.56° C | 70% | 1013 hPa | 0 mm | - | 160 W/m² | - |
| 1777320805 | 30° C | 70% | 1013.1 hPa | 0 mm | - | 242 W/m² | - |
| 1777320502 | 30° C | 73% | 1013.2 hPa | 0 mm | - | 317 W/m² | - |
| 1777320199 | 30° C | 75% | 1013.2 hPa | 0 mm | - | 158 W/m² | - |
| 1777319896 | 30° C | 74% | 1013.2 hPa | 0 mm | - | 141 W/m² | - |
| 1777319593 | 30° C | 73% | 1013.2 hPa | 0 mm | - | 146 W/m² | - |
| 1777319290 | 29.44° C | 72% | 1013.3 hPa | 0 mm | - | 133 W/m² | - |
* Rain latest hour (hover to see other rain measurements)
** Current wind speed in m/s (hover to see current wind gust speed)